This demonstration page uses our WeatherBlox Daily Observations layout. Learn more.

Left ArrowRight Arrow

40.92501, -98.34201

Hourly Observations for June 1, 2015

Temp ( °F °C ) Dew Point ( °F °C ) Humidity (%) Winds ( mph kmh ) Pressure ( in mb ) Visibility ( mi km ) Precip ( " mm )
12:53 am 00:53 Cloudy 60 15.6 48 8.9 65 65 SE 13 20 30.10 1019 10 16 0.00 0.00
1:53 am 01:53 Cloudy 60 15.6 48 8.9 65 65 SSE 12 19 30.10 1019 10 16 0.00 0.00
2:53 am 02:53 Cloudy 59 15 49 9.4 69 69 SSE 12 19 30.10 1019 10 16 0.00 0.00
3:53 am 03:53 Cloudy 58 14.4 50 10 75 75 SSE 13 20 30.10 1019 10 16 0.00 0.00
4:53 am 04:53 Cloudy 57 13.9 51 10.6 81 81 SSE 9 15 30.10 1019 10 16 0.00 0.00
5:53 am 05:53 Mostly Cloudy 56 13.3 52 11.1 87 87 SE 9 15 30.11 1020 10 16 0.00 0.00
6:53 am 06:53 Partly Cloudy 57 13.9 52 11.1 83 83 SSE 9 15 30.11 1020 10 16 0.00 0.00
7:53 am 07:53 Mostly Cloudy 60 15.6 53 11.7 78 78 SSE 12 19 30.11 1020 10 16 0.00 0.00
8:53 am 08:53 Partly Cloudy 62 16.7 54 12.2 75 75 S 15 24 30.11 1020 10 16 0.00 0.00
9:53 am 09:53 Mostly Cloudy 66 18.9 55 12.8 68 68 SSE 14 22 30.11 1020 10 16 0.00 0.00
10:53 am 10:53 Cloudy 66 18.9 55 12.8 68 68 SSE 15 24 30.11 1020 10 16 0.00 0.00
11:53 am 11:53 Mostly Cloudy 70 21.1 56 13.3 61 61 SSE 17 28 30.09 1019 10 16 0.00 0.00
12:53 pm 12:53 Mostly Cloudy 72 22.2 56 13.3 57 57 SE 15 24 30.08 1019 10 16 0.00 0.00
1:53 pm 13:53 Sunny 75 23.9 56 13.3 52 52 SSE 13 20 30.06 1018 10 16 0.00 0.00
2:53 pm 14:53 Sunny 78 25.6 56 13.3 47 47 S 17 28 30.04 1017 10 16 0.00 0.00
3:53 pm 15:53 Mostly Cloudy 78 25.6 56 13.3 47 47 SSE 16 26 30.03 1017 10 16 0.00 0.00
4:53 pm 16:53 Mostly Cloudy 76 24.4 56 13.3 50 50 S 16 26 30.02 1017 10 16 0.00 0.00
5:53 pm 17:53 Mostly Cloudy 76 24.4 57 13.9 52 52 S 18 30 30.02 1017 10 16 0.00 0.00
6:53 pm 18:53 Sunny 73 23 46 8 38 38 SSE 13 20 29.97 1015 10 16 0.00 0.00
7:53 pm 19:53 Cloudy 72 22.2 57 13.9 59 59 S 14 22 30.01 1016 10 16 0.00 0.00
8:53 pm 20:53 Mostly Cloudy 70 21.1 57 13.9 64 64 SSE 13 20 30.01 1016 10 16 0.00 0.00
9:53 pm 21:53 Clear 68 20 57 13.9 68 68 SSE 14 22 30.01 1016 10 16 0.00 0.00
10:53 pm 22:53 Cloudy 67 19.4 56 13.3 68 68 SSE 14 22 30.03 1017 10 16 0.00 0.00
11:53 pm 23:53 Cloudy 67 19.4 55 12.8 66 66 SSE 15 24 30.00 1016 10 16 0.00 0.00

Powered by AerisWeather